1487102401.18,49483,12.44,74718.3,-3.49,-32.13,-32.51,0,*5A
1487102402.44,49484,12.44,74722.8,-3.51,-32.13,-32.45,0,*51
1487102403.65,49485,12.44,74722.5,-3.49,-31.79,-32.13,0,*55
1487102404.91,49486,12.44,74720.0,-3.49,-31.95,-32.45,0,*57
1487102406.12,49487,12.44,74724.5,-3.49,-31.79,-32.13,0,*57
1487102407.37,49488,12.44,74720.8,-3.49,-31.51,-31.85,0,*5E
1487102408.63,49489,12.44,74720.0,-3.47,-31.91,-32.39,0,*59
1487102409.88,49490,12.44,74718.5,-3.47,-31.91,-32.35,0,*5D
1487102411.14,49491,12.44,74718.3,-3.49,-32.07,-32.45,0,*59
1487102412.38,49492,12.44,74718.5,-3.49,-32.07,-32.35,0,*5D
1487102413.63,49493,12.44,74720.3,-3.47,-32.19,-32.39,0,*51
1487102414.89,49494,12.44,74720.5,-3.49,-32.29,-32.63,0,*54
1487102416.14,49495,12.44,74726.5,-3.49,-32.29,-32.63,0,*55
1487102417.38,49496,12.44,74728.8,-3.49,-32.51,-32.79,0,*52
1487102418.58,49497,12.44,74724.5,-3.49,-32.35,-32.69,0,*50
1487102419.86,49498,12.44,74728.3,-3.47,-32.07,-32.45,0,*5E
1487102421.08,49499,12.44,74726.0,-3.49,-32.13,-32.51,0,*51
1487102422.32,49500,12.44,74724.0,-3.49,-31.95,-32.51,0,*5D
1487102423.56,49501,12.44,74722.3,-3.49,-32.07,-32.35,0,*56
1487102424.83,49502,12.44,74724.5,-3.47,-31.91,-32.29,0,*5A
1487102426.08,49503,12.44,74722.3,-3.47,-32.23,-32.63,0,*5F
1487102427.29,49504,12.44,74722.3,-3.49,-32.35,-32.69,0,*5B
1487102428.51,49505,12.44,74718.0,-3.49,-32.35,-32.79,0,*5B
1487102429.74,49506,12.44,74720.3,-3.49,-32.35,-32.79,0,*58
1487102431.02,49507,12.44,74718.8,-3.47,-32.29,-32.63,0,*51
1487102432.25,49508,12.44,74716.3,-3.49,-32.45,-32.69,0,*50
1487102433.51,49509,12.44,74716.3,-3.49,-32.63,-32.85,0,*57
1487102434.77,49510,12.44,74720.8,-3.47,-32.63,-32.91,0,*54
1487102436.0,49511,12.44,74724.0,-3.47,-32.57,-32.91,0,*52
1487102437.24,49512,12.44,74724.5,-3.49,-32.45,-32.69,0,*5B
1487102438.51,49513,12.44,74726.0,-3.47,-32.29,-32.85,0,*5C
1487102439.75,49514,12.44,74724.5,-3.49,-32.45,-32.69,0,*5D
1487102440.98,49515,12.44,74722.8,-3.49,-32.51,-32.97,0,*58
1487102442.26,49516,12.44,74726.8,-3.51,-32.45,-32.79,0,*57
1487102443.5,49517,12.44,74722.8,-3.49,-32.13,-32.63,0,*57
1487102444.76,49518,12.44,74722.0,-3.49,-32.45,-32.79,0,*50
1487102446.01,49519,12.44,74724.3,-3.49,-32.29,-32.63,0,*50
1487102447.24,49520,12.44,74722.3,-3.49,-32.23,-32.63,0,*50
1487102448.49,49521,12.44,74722.5,-3.49,-32.29,-32.63,0,*5B
1487102449.74,49522,12.44,74718.8,-3.47,-32.39,-32.63,0,*57
1487102450.98,49523,12.44,74718.5,-3.49,-32.45,-32.69,0,*59
1487102452.21,49524,12.44,74716.8,-3.49,-32.35,-32.79,0,*58
1487102453.5,49525,12.44,74712.3,-3.51,-32.63,-32.85,0,*50
1487102454.73,49526,12.44,74712.0,-3.49,-32.69,-32.97,0,*53
1487102455.99,49527,12.44,74714.8,-3.51,-32.63,-33.03,0,*5D
1487102457.28,49528,12.44,74714.3,-3.51,-32.45,-32.85,0,*59
1487102458.56,49529,12.44,74722.5,-3.51,-32.45,-32.79,0,*5B
1487102459.8,49530,12.44,74724.8,-3.49,-32.51,-32.85,0,*5C
1487102461.09,49531,12.44,74724.5,-3.51,-31.95,-32.45,0,*53
1487102462.35,49532,12.44,74716.0,-3.51,-32.07,-32.35,0,*5F
1487102463.59,49533,12.44,74718.0,-3.53,-32.29,-32.69,0,*59
1487102464.82,49534,12.44,74720.5,-3.51,-32.23,-32.51,0,*5D
1487102466.06,49535,12.44,74722.5,-3.51,-32.23,-32.51,0,*5C
1487102467.29,49536,12.44,74720.5,-3.51,-32.35,-32.69,0,*53
1487102468.55,49537,12.44,74726.0,-3.51,-32.29,-32.51,0,*54
1487102469.84,49538,12.44,74722.3,-3.51,-32.45,-32.79,0,*5B
1487102471.07,49539,12.44,74724.0,-3.51,-32.35,-32.69,0,*5C
1487102472.28,49540,12.44,74720.3,-3.53,-32.57,-33.03,0,*59
1487102473.49,49541,12.44,74722.8,-3.53,-32.57,-32.91,0,*52
1487102474.77,49542,12.44,74724.8,-3.51,-32.45,-32.97,0,*56
1487102476.01,49543,12.44,74722.0,-3.51,-32.13,-32.51,0,*5E
1487102477.3,49544,12.44,74720.8,-3.51,-32.07,-32.45,0,*59
1487102478.56,49545,12.44,74720.8,-3.51,-32.23,-32.63,0,*5A
1487102479.82,49546,12.44,74726.5,-3.51,-32.07,-32.51,0,*5E
1487102481.08,49547,12.44,74726.0,-3.51,-32.23,-32.63,0,*58
1487102482.29,49548,12.44,74722.0,-3.53,-32.35,-32.69,0,*58
1487102483.54,49549,12.44,74718.8,-3.51,-32.35,-32.79,0,*5A
1487102484.81,49550,12.44,74720.5,-3.51,-32.51,-32.85,0,*53
1487102486.04,49551,12.44,74712.8,-3.51,-32.35,-32.69,0,*52
1487102487.3,49552,12.44,74714.8,-3.51,-32.51,-32.79,0,*52
1487102488.53,49553,12.44,74718.3,-3.49,-32.51,-32.97,0,*5A
1487102489.79,49554,12.44,74720.0,-3.51,-32.51,-32.97,0,*54
1487102491.03,49555,12.44,74718.0,-3.51,-32.69,-33.03,0,*52
1487102492.24,49556,12.44,74716.8,-3.53,-32.51,-32.91,0,*52
1487102493.47,49557,12.44,74714.3,-3.51,-32.35,-32.91,0,*53
1487102494.76,49558,12.44,74716.5,-3.51,-32.45,-32.85,0,*5E
1487102496.04,49559,12.44,74722.8,-3.51,-32.63,-32.85,0,*5B
1487102497.28,49560,12.44,74724.3,-3.53,-32.35,-32.75,0,*5F
1487102498.57,49561,12.44,74722.0,-3.51,-31.95,-32.45,0,*56
1487102499.83,49562,12.44,74720.5,-3.51,-32.13,-32.45,0,*58
1487102501.05,49563,12.44,74722.0,-3.53,-32.29,-32.57,0,*51
1487102502.31,49564,12.44,74720.3,-3.51,-32.13,-32.63,0,*5A
1487102503.59,49565,12.44,74720.5,-3.51,-32.45,-32.79,0,*53
1487102504.85,49566,12.44,74718.8,-3.51,-32.29,-32.69,0,*5B
1487102506.13,49567,12.44,74720.0,-3.51,-32.29,-32.63,0,*50
1487102507.41,49568,12.44,74726.3,-3.51,-32.29,-32.63,0,*5F
1487102508.7,49569,12.5,74728.3,-3.51,-32.07,-32.45,0,*56
1487102509.91,49570,12.44,74726.5,-3.49,-32.23,-32.51,0,*54
1487102511.11,49571,12.44,74726.5,-3.49,-32.35,-32.69,0,*59
1487102512.4,49572,12.44,74724.5,-3.51,-32.63,-32.85,0,*52
1487102513.69,49573,12.44,74722.0,-3.51,-32.45,-32.85,0,*57
1487102514.97,49574,12.44,74722.0,-3.51,-32.45,-32.97,0,*53
1487102516.26,49575,12.44,74722.5,-3.51,-32.63,-32.85,0,*55
1487102517.54,49576,12.44,74726.3,-3.51,-32.63,-32.85,0,*56
1487102518.8,49577,12.44,74722.8,-3.51,-32.29,-32.69,0,*5B
1487102520.04,49578,12.44,74716.5,-3.53,-32.57,-32.85,0,*5D
1487102521.26,49579,12.44,74720.5,-3.53,-32.69,-32.91,0,*54
1487102522.55,49580,12.44,74718.8,-3.51,-32.45,-32.79,0,*58
1487102523.81,49581,12.44,74716.0,-3.51,-32.51,-32.85,0,*5F
1487102525.02,49582,12.44,74722.8,-3.53,-32.69,-33.21,0,*5A
1487102526.23,49583,12.44,74722.0,-3.53,-32.91,-33.15,0,*5B
1487102527.47,49584,12.44,74720.3,-3.53,-32.75,-33.21,0,*51
1487102528.71,49585,12.44,74720.8,-3.53,-32.85,-33.21,0,*5F
1487102529.97,49586,12.44,74722.5,-3.51,-32.51,-32.79,0,*5B
1487102531.18,49587,12.44,74716.8,-3.53,-32.69,-33.03,0,*5F
1487102532.42,49588,12.44,74720.0,-3.53,-32.75,-33.21,0,*5D
1487102533.66,49589,12.44,74722.5,-3.53,-32.69,-33.09,0,*5B
1487102534.88,49590,12.44,74716.5,-3.53,-32.69,-33.03,0,*59
1487102536.13,49591,12.5,74722.8,-3.55,-32.91,-33.09,0,*53
1487102537.38,49592,12.44,74712.8,-3.53,-32.69,-33.09,0,*51
1487102538.64,49593,12.44,74720.0,-3.55,-32.75,-33.03,0,*51
1487102539.85,49594,12.44,74720.5,-3.53,-32.57,-32.91,0,*5A
1487102541.09,49595,12.44,74718.0,-3.53,-32.51,-32.75,0,*57
1487102542.33,49596,12.44,74718.5,-3.53,-32.39,-32.85,0,*55
1487102543.59,49597,12.44,74718.5,-3.55,-32.39,-32.85,0,*52
1487102544.83,49598,12.44,74724.8,-3.53,-32.69,-33.09,0,*5B
1487102546.12,49599,12.44,74724.5,-3.55,-32.75,-33.09,0,*51
1487102547.35,49600,12.44,74720.0,-3.55,-32.39,-32.91,0,*5A
1487102548.61,49601,12.44,74722.0,-3.55,-32.57,-33.09,0,*53
1487102549.87,49602,12.44,74720.0,-3.55,-32.39,-32.85,0,*5D
1487102551.1,49603,12.44,74720.0,-3.55,-32.57,-33.03,0,*5B
1487102552.34,49604,12.44,74722.3,-3.57,-32.35,-32.75,0,*5A
1487102553.57,49605,12.44,74728.3,-3.55,-32.51,-32.91,0,*51
1487102554.78,49606,12.44,74718.5,-3.57,-32.57,-32.91,0,*56
1487102556.04,49607,12.44,74716.3,-3.55,-32.35,-32.75,0,*5B
1487102557.28,49608,12.44,74720.0,-3.55,-32.01,-32.51,0,*55
1487102558.51,49609,12.44,74720.3,-3.57,-32.35,-32.63,0,*50
1487102559.77,49610,12.44,74714.8,-3.55,-32.39,-32.85,0,*5E
1487102561.0,49611,12.44,74722.0,-3.55,-32.57,-32.91,0,*52
1487102562.27,49612,12.44,74720.3,-3.57,-32.63,-33.09,0,*54
1487102563.53,49613,12.44,74720.3,-3.57,-32.75,-33.09,0,*52
1487102564.77,49614,12.44,74718.8,-3.55,-32.69,-33.03,0,*50
1487102566.03,49615,12.44,74724.5,-3.55,-32.51,-32.85,0,*55
1487102567.27,49616,12.44,74728.8,-3.57,-32.39,-32.75,0,*55
1487102568.52,49617,12.44,74722.3,-3.55,-32.13,-32.45,0,*5D
1487102569.77,49618,12.44,74712.8,-3.57,-32.39,-32.75,0,*5B
1487102571.03,49619,12.44,74714.8,-3.55,-32.51,-32.85,0,*59
1487102572.26,49620,12.44,74718.0,-3.55,-32.57,-33.03,0,*5A
1487102573.52,49621,12.44,74718.0,-3.55,-32.39,-32.75,0,*53
1487102574.78,49622,12.44,74718.3,-3.57,-32.45,-32.79,0,*55
1487102576.04,49623,12.44,74720.5,-3.55,-32.51,-32.85,0,*50
1487102577.25,49624,12.44,74716.5,-3.53,-32.57,-33.03,0,*58
1487102578.49,49625,12.44,74718.5,-3.55,-32.57,-33.03,0,*5F
1487102579.75,49626,12.44,74720.0,-3.57,-32.75,-32.97,0,*52
1487102581.01,49627,12.44,74716.8,-3.55,-32.51,-32.75,0,*5B
1487102582.25,49628,12.44,74720.5,-3.57,-32.39,-32.75,0,*58
1487102583.51,49629,12.44,74722.0,-3.55,-32.39,-32.75,0,*5B
1487102584.76,49630,12.44,74718.3,-3.57,-32.39,-32.75,0,*51
1487102585.99,49631,12.44,74718.8,-3.55,-32.39,-32.91,0,*58
1487102587.23,49632,12.44,74720.3,-3.57,-32.57,-32.79,0,*57
1487102588.49,49633,12.44,74720.0,-3.55,-32.39,-32.85,0,*5F
1487102589.75,49634,12.44,74718.8,-3.57,-32.45,-32.79,0,*52
1487102590.99,49635,12.44,74722.5,-3.57,-32.57,-32.97,0,*50
1487102592.23,49636,12.44,74720.0,-3.57,-32.75,-33.15,0,*58
1487102593.46,49637,12.44,74722.3,-3.55,-32.57,-33.03,0,*5C
1487102594.69,49638,12.44,74718.5,-3.57,-32.35,-32.75,0,*55
1487102595.89,49639,12.44,74716.8,-3.57,-32.35,-32.57,0,*54
1487102597.09,49640,12.44,74716.0,-3.57,-32.35,-32.57,0,*5A
1487102598.34,49641,12.44,74716.3,-3.55,-32.29,-32.57,0,*54
1487102599.57,49642,12.44,74718.5,-3.57,-32.35,-32.63,0,*5F
1487102600.78,49643,12.44,74714.3,-3.57,-32.57,-32.91,0,*57
1487102602.0,49644,12.44,74714.5,-3.57,-32.57,-32.91,0,*50
1487102603.23,49645,12.44,74720.0,-3.55,-32.57,-32.91,0,*53
1487102604.47,49646,12.44,74716.5,-3.57,-32.57,-32.97,0,*54
1487102605.73,49647,12.44,74720.3,-3.57,-32.63,-33.09,0,*54
1487102606.99,49648,12.44,74720.5,-3.57,-32.63,-32.79,0,*5D
1487102608.23,49649,12.44,74720.0,-3.57,-32.39,-32.63,0,*58
1487102609.49,49650,12.44,74722.5,-3.57,-32.45,-32.79,0,*50
1487102610.73,49651,12.44,74722.5,-3.59,-32.57,-32.91,0,*5A
1487102612.01,49652,12.44,74722.5,-3.59,-32.45,-32.79,0,*5C
1487102613.25,49653,12.44,74722.5,-3.57,-32.23,-32.63,0,*58
1487102614.51,49654,12.44,74720.8,-3.57,-32.63,-33.09,0,*56
1487102615.72,49655,12.44,74722.5,-3.57,-32.57,-32.91,0,*50
1487102616.98,49656,12.44,74720.3,-3.57,-32.63,-32.97,0,*52
1487102618.21,49657,12.44,74722.8,-3.57,-32.35,-32.63,0,*5B
1487102619.44,49658,12.44,74722.3,-3.55,-32.39,-32.57,0,*5D
1487102620.7,49659,12.44,74722.3,-3.57,-32.75,-32.97,0,*5A
1487102621.96,49660,12.44,74724.0,-3.57,-32.45,-32.79,0,*53
1487102623.23,49661,12.44,74716.8,-3.57,-32.07,-32.45,0,*5B
1487102624.46,49662,12.44,74708.3,-3.57,-32.35,-32.75,0,*5A
1487102625.68,49663,12.44,74708.0,-3.57,-32.57,-32.91,0,*55
1487102626.92,49664,12.44,74708.0,-3.57,-32.39,-32.79,0,*5C
1487102628.15,49665,12.44,74712.8,-3.57,-32.07,-32.57,0,*5C
1487102629.38,49666,12.44,74714.3,-3.57,-32.35,-32.63,0,*59
1487102630.62,49667,12.44,74714.8,-3.57,-32.35,-32.75,0,*5F
1487102631.88,49668,12.44,74716.3,-3.57,-32.45,-32.79,0,*5B
1487102633.12,49669,12.44,74710.0,-3.57,-32.39,-32.75,0,*5D
1487102634.33,49670,12.44,74714.5,-3.57,-32.57,-32.91,0,*57
1487102635.57,49671,12.44,74714.5,-3.57,-32.35,-32.75,0,*58
1487102636.8,49672,12.44,74714.0,-3.57,-32.19,-32.57,0,*55
1487102638.01,49673,12.44,74716.3,-3.57,-32.23,-32.57,0,*5D
1487102639.23,49674,12.44,74718.8,-3.57,-32.35,-32.63,0,*5A
1487102640.48,49675,12.44,74722.0,-3.55,-32.29,-32.57,0,*53
1487102641.73,49676,12.44,74720.5,-3.55,-32.29,-32.57,0,*50
1487102642.96,49677,12.44,74722.0,-3.57,-32.07,-32.57,0,*5F
1487102644.2,49678,12.44,74712.5,-3.57,-32.39,-32.79,0,*51
1487102645.48,49679,12.44,74714.0,-3.55,-32.29,-32.63,0,*58
1487102646.71,49680,12.44,74708.3,-3.57,-32.35,-32.75,0,*56
1487102647.95,49681,12.44,74710.8,-3.57,-32.39,-32.79,0,*57
1487102649.21,49682,12.44,74716.5,-3.55,-32.29,-32.69,0,*56
1487102650.47,49683,12.44,74718.0,-3.57,-32.45,-32.75,0,*52
1487102651.71,49684,12.44,74716.5,-3.57,-32.39,-32.79,0,*52
1487102652.94,49685,12.44,74714.3,-3.57,-32.23,-32.45,0,*57
1487102654.18,49686,12.44,74716.3,-3.57,-32.19,-32.57,0,*5E
1487102655.41,49687,12.44,74718.5,-3.57,-32.23,-32.63,0,*51
1487102656.64,49688,12.44,74722.3,-3.57,-32.19,-32.57,0,*50
1487102657.87,49689,12.44,74724.3,-3.55,-32.13,-32.39,0,*51
1487102659.12,49690,12.44,74726.3,-3.57,-32.07,-32.39,0,*5E
1487102660.38,49691,12.44,74730.0,-3.57,-32.19,-32.45,0,*5B
1487102661.62,49692,12.44,74730.5,-3.57,-32.07,-32.23,0,*57
1487102662.85,49693,12.44,74722.5,-3.55,-32.01,-32.35,0,*55
1487102664.12,49694,12.44,74724.8,-3.57,-32.19,-32.45,0,*5E
1487102665.4,49695,12.44,74726.3,-3.55,-31.95,-32.29,0,*50
1487102666.64,49696,12.44,74720.5,-3.57,-32.23,-32.75,0,*56
1487102667.86,49697,12.44,74722.0,-3.55,-32.35,-32.57,0,*52
1487102669.09,49698,12.44,74722.0,-3.57,-32.23,-32.63,0,*5F
1487102670.32,49699,12.44,74720.0,-3.55,-32.35,-32.69,0,*51
1487102671.56,49700,12.44,74742.0,-3.57,-32.39,-32.85,0,*5C
1487102672.79,49701,12.44,74736.5,-3.57,-32.39,-32.63,0,*55
1487102674.03,49702,12.44,74732.8,-3.57,-32.07,-32.57,0,*5C
1487102675.26,49703,12.44,74732.8,-3.57,-32.23,-32.63,0,*5C
1487102676.49,49704,12.44,74730.5,-3.57,-32.23,-32.63,0,*5B
1487102677.76,49705,12.44,74724.5,-3.57,-32.07,-32.45,0,*58
1487102679.01,49706,12.44,74726.3,-3.57,-31.51,-31.73,0,*5D
1487102680.27,49707,12.44,74718.0,-3.55,-31.29,-31.61,0,*52
1487102681.51,49708,12.44,74718.8,-3.57,-31.85,-32.23,0,*5C
1487102682.74,49709,12.44,74710.5,-3.55,-32.13,-32.39,0,*58
1487102684.01,49710,12.44,74708.8,-3.53,-31.95,-32.29,0,*5A
1487102685.25,49711,12.44,74710.3,-3.55,-32.01,-32.39,0,*52
1487102686.53,49712,12.44,74708.8,-3.55,-31.85,-32.29,0,*5F
1487102687.76,49713,12.44,74716.8,-3.53,-31.95,-32.13,0,*50
1487102689.0,49714,12.44,74718.8,-3.53,-31.95,-32.35,0,*53
1487102690.29,49715,12.44,74718.3,-3.51,-32.07,-32.45,0,*5F
1487102691.52,49716,12.44,74722.0,-3.53,-32.29,-32.57,0,*51
1487102692.75,49717,12.44,74720.5,-3.53,-31.95,-32.35,0,*50
1487102693.99,49718,12.44,74724.3,-3.51,-32.13,-32.51,0,*52
1487102695.21,49719,12.44,74724.8,-3.53,-32.39,-32.69,0,*52
1487102696.44,49720,12.44,74724.3,-3.53,-32.29,-32.69,0,*59
1487102697.7,49721,12.44,74726.0,-3.55,-32.39,-32.75,0,*52
1487102698.91,49722,12.44,74724.0,-3.53,-32.35,-32.69,0,*56
1487102700.11,49723,12.44,74720.3,-3.53,-32.35,-32.57,0,*5A
1487102701.34,49724,12.44,74720.0,-3.53,-32.29,-32.57,0,*50
1487102702.55,49725,12.44,74722.0,-3.53,-32.13,-32.51,0,*5E
1487102703.81,49726,12.44,74724.8,-3.55,-32.29,-32.69,0,*59
1487102705.04,49727,12.44,74722.5,-3.55,-32.35,-32.69,0,*55
1487102706.3,49728,12.44,74724.0,-3.55,-32.39,-32.85,0,*54
1487102707.56,49729,12.44,74718.0,-3.55,-32.39,-32.75,0,*5A
1487102708.77,49730,12.44,74720.3,-3.53,-32.57,-32.91,0,*56
1487102710.01,49731,12.44,74722.5,-3.57,-32.39,-32.79,0,*5D
1487102711.27,49732,12.44,74722.0,-3.55,-32.51,-32.85,0,*51
1487102712.51,49733,12.44,74726.5,-3.57,-32.35,-32.75,0,*5F
1487102713.74,49734,12.44,74724.8,-3.55,-32.35,-32.69,0,*57
1487102714.97,49735,12.44,74726.5,-3.55,-32.35,-32.69,0,*56
1487102716.2,49736,12.44,74730.3,-3.55,-32.39,-32.91,0,*5E
1487102717.43,49737,12.44,74726.8,-3.57,-32.57,-32.97,0,*53
1487102718.67,49738,12.44,74730.5,-3.57,-32.23,-32.63,0,*54
1487102719.9,49739,12.44,74724.8,-3.57,-32.45,-32.91,0,*58
1487102721.16,49740,12.44,74726.5,-3.57,-32.45,-32.97,0,*50
1487102722.37,49741,12.44,74724.3,-3.57,-32.39,-32.91,0,*5C
1487102723.61,49742,12.44,74726.0,-3.55,-32.57,-32.91,0,*55
1487102724.86,49743,12.44,74728.5,-3.57,-32.63,-32.97,0,*57
1487102726.11,49744,12.44,74724.8,-3.57,-32.57,-32.85,0,*54
1487102727.34,49745,12.44,74724.0,-3.55,-32.35,-32.69,0,*51
1487102728.57,49746,12.44,74722.3,-3.55,-32.13,-32.35,0,*5F
1487102729.8,49747,12.44,74722.8,-3.57,-32.35,-32.75,0,*5C
1487102731.06,49748,12.44,74734.3,-3.55,-32.51,-32.85,0,*5C
1487102732.32,49749,12.44,74734.3,-3.55,-32.29,-32.51,0,*5B
1487102733.55,49750,12.44,74730.5,-3.55,-32.13,-32.51,0,*5A
1487102734.78,49751,12.44,74724.8,-3.57,-32.19,-32.57,0,*55
1487102736.04,49752,12.44,74724.3,-3.55,-32.29,-32.69,0,*5A
1487102737.28,49753,12.44,74724.5,-3.55,-32.01,-32.39,0,*54
1487102738.52,49754,12.44,74724.8,-3.55,-32.13,-32.51,0,*5E
1487102739.77,49755,12.44,74720.5,-3.55,-32.35,-32.75,0,*5D
1487102741.03,49756,12.44,74720.5,-3.57,-32.45,-32.79,0,*57
1487102742.28,49757,12.44,74714.5,-3.55,-32.29,-32.57,0,*52
1487102743.52,49758,12.44,74710.8,-3.57,-32.35,-32.75,0,*52
1487102744.78,49759,12.44,74714.5,-3.55,-32.19,-32.69,0,*52
1487102746.06,49760,12.44,74712.8,-3.55,-32.29,-32.75,0,*56
1487102747.31,49761,12.44,74720.3,-3.55,-32.19,-32.57,0,*54
1487102748.55,49762,12.44,74718.0,-3.55,-32.13,-32.51,0,*5B
1487102749.8,49763,12.44,74714.5,-3.55,-32.29,-32.69,0,*58
1487102751.04,49764,12.44,74722.0,-3.55,-32.13,-32.51,0,*5D
1487102752.27,49765,12.44,74722.5,-3.55,-32.13,-32.51,0,*5C
1487102753.53,49766,12.44,74722.0,-3.55,-32.39,-32.85,0,*5E
1487102754.77,49767,12.44,74718.0,-3.55,-32.01,-32.39,0,*53
1487102756.03,49768,12.44,74722.8,-3.55,-32.39,-32.75,0,*5F
1487102757.26,49769,12.44,74722.3,-3.55,-32.13,-32.57,0,*56
1487102758.52,49770,12.44,74720.5,-3.55,-32.35,-32.75,0,*5A
1487102759.78,49771,12.44,74722.3,-3.57,-32.45,-32.75,0,*5E
1487102761.01,49772,12.44,74726.5,-3.57,-32.35,-32.63,0,*5D
1487102762.27,49773,12.44,74724.5,-3.55,-32.01,-32.29,0,*57
1487102763.54,49774,12.44,74718.8,-3.53,-31.85,-32.19,0,*5A
1487102764.78,49775,12.44,74716.0,-3.55,-32.01,-32.51,0,*5E
1487102766.0,49776,12.44,74718.8,-3.55,-32.35,-32.69,0,*51
1487102767.24,49777,12.44,74722.0,-3.55,-32.13,-32.51,0,*5F
1487102768.46,49778,12.44,74726.0,-3.53,-32.01,-32.39,0,*5B
1487102769.66,49779,12.5,74724.0,-3.53,-32.13,-32.57,0,*51
1487102770.88,49780,12.44,74716.5,-3.53,-32.13,-32.51,0,*51
1487102772.13,49781,12.44,74722.0,-3.55,-32.29,-32.57,0,*59
1487102773.36,49782,12.44,74724.5,-3.53,-32.35,-32.75,0,*51
1487102774.6,49783,12.44,74720.0,-3.53,-31.91,-32.35,0,*59
1487102775.86,49784,12.44,74722.0,-3.55,-31.95,-32.39,0,*50
1487102777.07,49785,12.44,74720.0,-3.53,-32.13,-32.51,0,*54
1487102778.31,49786,12.44,74716.8,-3.53,-32.29,-32.69,0,*55
1487102779.54,49787,12.44,74714.3,-3.53,-32.19,-32.57,0,*5A
1487102780.83,49788,12.44,74716.8,-3.51,-32.07,-32.45,0,*5B
1487102782.07,49789,12.44,74718.5,-3.53,-32.39,-32.75,0,*56
1487102783.28,49790,12.44,74720.5,-3.53,-32.35,-32.69,0,*5F
1487102784.5,49791,12.44,74722.0,-3.53,-32.01,-32.39,0,*5C
1487102785.72,49792,12.44,74724.3,-3.53,-32.01,-32.51,0,*51
1487102786.93,49793,12.44,74726.5,-3.53,-32.01,-32.35,0,*52
1487102788.14,49794,12.44,74720.5,-3.53,-32.13,-32.57,0,*52
1487102789.37,49795,12.44,74726.0,-3.53,-32.19,-32.57,0,*59
1487102790.59,49796,12.44,74722.3,-3.53,-32.01,-32.39,0,*5B
1487102791.85,49797,12.44,74722.0,-3.51,-31.95,-32.35,0,*5A
1487102793.07,49798,12.44,74718.5,-3.53,-32.29,-32.57,0,*57
1487102794.33,49799,12.44,74720.8,-3.51,-32.23,-32.63,0,*59
1487102795.57,49800,12.44,74722.5,-3.51,-32.13,-32.51,0,*54
1487102796.8,49801,12.44,74718.0,-3.51,-31.79,-32.13,0,*5C
1487102798.09,49802,12.44,74722.0,-3.51,-31.61,-31.95,0,*5B
1487102799.35,49803,12.44,74728.3,-3.51,-31.91,-32.13,0,*58
1487102800.64,49804,12.44,74722.3,-3.51,-31.61,-31.91,0,*59
1487102801.89,49805,12.44,74718.3,-3.49,-31.91,-32.29,0,*5E
1487102803.13,49806,12.44,74722.0,-3.47,-32.01,-32.39,0,*58
1487102804.4,49807,12.44,74724.8,-3.47,-31.91,-32.29,0,*52
1487102805.66,49808,12.44,74720.5,-3.49,-31.95,-32.45,0,*5D
1487102806.92,49809,12.44,74722.8,-3.47,-31.85,-32.13,0,*50
1487102808.15,49810,12.44,74722.5,-3.49,-31.91,-32.13,0,*53
1487102809.39,49811,12.44,74726.5,-3.49,-32.07,-32.51,0,*58
1487102810.65,49812,12.44,74722.8,-3.49,-31.95,-32.29,0,*5C
1487102811.88,49813,12.44,74718.5,-3.49,-31.91,-32.35,0,*54
1487102813.15,49814,12.44,74718.5,-3.49,-31.95,-32.45,0,*50
1487102814.38,49815,12.44,74718.5,-3.47,-32.01,-32.39,0,*5A
1487102815.59,49816,12.44,74718.0,-3.49,-32.23,-32.51,0,*59
1487102816.81,49817,12.44,74722.0,-3.49,-32.13,-32.51,0,*5B
1487102818.09,49818,12.44,74716.8,-3.47,-31.85,-32.19,0,*5A
1487102819.33,49819,12.44,74720.0,-3.49,-31.95,-32.35,0,*5A
1487102820.6,49820,12.44,74718.8,-3.47,-31.91,-32.29,0,*57
1487102821.83,49821,12.44,74720.8,-3.49,-31.91,-32.13,0,*51
1487102823.12,49822,12.44,74722.8,-3.47,-31.85,-32.19,0,*53
1487102824.32,49823,12.44,74722.0,-3.49,-31.79,-32.23,0,*56
1487102825.61,49824,12.44,74724.8,-3.47,-31.73,-32.07,0,*53
1487102826.87,49825,12.44,74724.3,-3.47,-31.85,-32.39,0,*56
1487102828.14,49826,12.44,74724.3,-3.47,-31.91,-32.29,0,*51
1487102829.35,49827,12.44,74720.0,-3.45,-32.01,-32.39,0,*59
1487102830.57,49828,12.44,74722.0,-3.45,-32.01,-32.39,0,*56
1487102831.83,49829,12.44,74724.3,-3.45,-32.07,-32.45,0,*5A
1487102833.09,49830,12.44,74718.8,-3.45,-31.85,-32.19,0,*52
1487102834.32,49831,12.44,74722.3,-3.45,-31.85,-32.23,0,*5A
1487102835.57,49832,12.44,74720.5,-3.45,-31.91,-32.29,0,*56
1487102836.83,49833,12.44,74724.3,-3.45,-32.07,-32.45,0,*51
1487102838.09,49834,12.44,74722.5,-3.45,-31.85,-32.19,0,*56
1487102839.35,49835,12.44,74718.0,-3.43,-31.95,-32.23,0,*59
1487102840.61,49836,12.44,74718.3,-3.43,-31.95,-32.23,0,*5A
1487102841.86,49837,12.44,74720.8,-3.45,-32.19,-32.45,0,*5A
1487102843.09,49838,12.44,74718.3,-3.45,-32.19,-32.57,0,*56
1487102844.31,49839,12.44,74720.8,-3.43,-32.23,-32.57,0,*58
1487102845.57,49840,12.44,74716.5,-3.45,-32.07,-32.45,0,*55
1487102846.82,49841,12.44,74720.0,-3.43,-31.85,-32.13,0,*58
1487102848.08,49842,12.44,74718.5,-3.43,-31.95,-32.35,0,*5E
1487102849.32,49843,12.44,74720.0,-3.45,-31.95,-32.35,0,*59
1487102850.57,49844,12.44,74724.3,-3.43,-31.95,-32.23,0,*5F
1487102851.8,49845,12.44,74718.0,-3.45,-32.01,-32.29,0,*5C
1487102853.03,49846,12.44,74720.8,-3.43,-32.13,-32.35,0,*57
1487102854.29,49847,12.44,74720.5,-3.43,-31.95,-32.23,0,*5C
1487102855.52,49848,12.44,74720.3,-3.43,-32.13,-32.35,0,*59
1487102856.77,49849,12.44,74716.0,-3.45,-31.91,-32.29,0,*5A
1487102858.03,49850,12.44,74718.0,-3.43,-31.95,-32.35,0,*5D
1487102859.29,49851,12.44,74716.3,-3.43,-31.95,-32.35,0,*5C
1487102860.55,49852,12.44,74720.0,-3.43,-31.95,-32.35,0,*5F
1487102861.81,49853,12.44,74720.5,-3.43,-31.85,-32.35,0,*5F
1487102863.04,49854,12.44,74722.5,-3.43,-32.01,-32.35,0,*57
1487102864.28,49855,12.44,74722.3,-3.43,-32.01,-32.39,0,*5A
1487102865.51,49856,12.44,74724.3,-3.43,-32.13,-32.39,0,*5A
1487102866.75,49857,12.44,74728.8,-3.39,-32.13,-32.45,0,*5D
1487102867.98,49858,12.44,74724.8,-3.43,-32.01,-32.35,0,*5B
1487102869.21,49859,12.44,74720.8,-3.39,-32.13,-32.45,0,*53
1487102870.45,49860,12.44,74722.0,-3.39,-32.07,-32.35,0,*5B
1487102871.68,49861,12.44,74720.0,-3.43,-32.01,-32.39,0,*5D
1487102872.92,49862,12.44,74718.3,-3.43,-32.13,-32.51,0,*53
1487102874.16,49863,12.44,74720.0,-3.43,-32.13,-32.51,0,*52
1487102875.42,49864,12.44,74718.5,-3.37,-31.95,-32.39,0,*55
1487102876.68,49865,12.44,74714.0,-3.43,-31.95,-32.35,0,*5B
1487102877.92,49866,12.44,74714.3,-3.43,-32.01,-32.39,0,*5A
1487102879.17,49867,12.44,74712.8,-3.43,-32.19,-32.57,0,*5A
1487102880.41,49868,12.44,74716.0,-3.39,-31.95,-32.35,0,*5B
1487102881.66,49869,12.44,74722.5,-3.39,-31.95,-32.29,0,*57
1487102882.9,49870,12.44,74726.5,-3.39,-31.79,-32.07,0,*51
1487102884.1,49871,12.44,74720.8,-3.39,-31.79,-32.13,0,*55
1487102885.34,49872,12.44,74716.8,-3.39,-31.79,-32.19,0,*5C
1487102886.57,49873,12.44,74718.8,-3.39,-31.91,-32.35,0,*55
1487102887.8,49874,12.44,74720.0,-3.39,-32.13,-32.45,0,*5C
1487102889.06,49875,12.44,74720.8,-3.39,-31.91,-32.29,0,*5E
1487102890.35,49876,12.44,74718.3,-3.37,-31.61,-32.07,0,*50
1487102891.61,49877,12.44,74720.0,-3.37,-31.79,-32.29,0,*54
1487102892.89,49878,12.44,74724.5,-3.37,-31.95,-32.29,0,*59
1487102894.15,49879,12.44,74722.0,-3.37,-31.91,-32.35,0,*51
1487102895.42,49880,12.44,74718.5,-3.37,-31.95,-32.35,0,*53
1487102896.65,49881,12.44,74718.3,-3.39,-31.79,-32.29,0,*53
1487102897.94,49882,12.44,74716.0,-3.37,-31.91,-32.19,0,*5B